Regional Weather Roundup
Issued by NWS Nashville, TN

Home | Current Version | Previous Version | Text Only | Print | Product List | Glossary On
Versions: 1 2 3 4 5 6 7 8 9 10 11 12 13 14 15 16 17 18 19 20 21 22 23 24 25 26 27 28
000
ASUS44 KOHX 271410
RWROHX
MIDDLE TENNESSEE HOURLY WEATHER ROUNDUP
NATIONAL WEATHER SERVICE NASHVILLE TN
900 AM CDT TUE SEP 27 2016

NOTE: "FAIR" INDICATES FEW OR NO CLOUDS BELOW 12,000 FEET WITH
NO SIGNIFICANT WEATHER AND/OR OBSTRUCTIONS TO VISIBILITY.

* THESE REPORTS ARE NOT UNDER NWS QUALITY CONTROL AND MAY NOT
  REPORT WEATHER SUCH AS PRECIPITATION AND FOG.


TNZ005>011-023>034-057-059-062>066-078-080-271500
...NORTHERN MIDDLE TENNESSEE...

CITY           SKY/WX    TMP DP  RH WIND       PRES   REMARKS
CLARKSVILLE    FOG       54  54 100 CALM      30.06R VSB 1/2
CROSSVILLE     SUNNY     63  42  46 NE10      30.05F
GALLATIN       SUNNY     59  54  82 CALM      30.08S
DICKSON        SUNNY     61  53  74 CALM      30.06R
LEBANON        SUNNY     59  55  86 CALM      30.04
NASHVILLE      MOSUNNY   63  54  72 CALM      30.06S
WEST NASHVILLE CLOUDY    54  54 100 CALM      30.06R VSB 3/4
PORTLAND       SUNNY     61  55  82 CALM      30.06R
SMYRNA         SUNNY     63  54  72 CALM      30.06S
SPARTA         SUNNY     66  48  52 VRB3      30.04R
$$
TNZ056-058-060-061-075>077-079-093>097-271500
...SOUTHERN MIDDLE TENNESSEE...

CITY           SKY/WX    TMP DP  RH WIND       PRES   REMARKS
COLUMBIA       SUNNY     63  63 100 N5        30.04S
FAYETTEVILLE   SUNNY     66  50  55 N9        30.03S
MCMINNVILLE    SUNNY     66  54  63 NE6       30.04S
MURFREESBORO   SUNNY     63  53  69 N3        30.04S
SHELBYVILLE    SUNNY     68  52  56 NE9       30.04F
TULLAHOMA      MOSUNNY   63  50  63 NE8       30.04F
WINCHESTER     SUNNY     64  57  77 CALM      30.03S
$$


...KEY TO REMARKS...
VSB - VISIBILITY IN MILES
WCI - WIND CHILL INDEX
HX  - HEAT INDEX





USA.gov is the U.S. government's official web portal to all federal, state and local government web resources and services.